QPF
0.00 0.00 0.01 0.01 0.01 0.01 0.01 0.01 0.01 0.01 0.00 0.01 0.02 0.06 0.07 0.07 0.04 0.02 0.02 0.01 0.01 0.01 0.01 0.02 0.04 0.04 0.02 0.02 0.02 0.02 0.02 0.01 0.02 0.02 0.03 0.02 0.03 0.03 0.02 0.02 0.01 0.01 0.01
0.00 0.00 0.01 0.01 0.01 0.01 0.00 0.00 0.01 0.01 0.01 0.01 0.02 0.05 0.12 0.13 0.11 0.06 0.03 0.01 0.01 0.01 0.01 0.01 0.02 0.03 0.02 0.02 0.01 0.01 0.01 0.01 0.02 0.02 0.02 0.02 0.03 0.02 0.01 0.02 0.02 0.02 0.02
0.00 0.01 0.01 0.01 0.01 0.01 0.01 0.01 0.01 0.01 0.01 0.01 0.02 0.04 0.10 0.14 0.11 0.06 0.03 0.02 0.01 0.02 0.02 0.01 0.02 0.03 0.02 0.02 0.02 0.02 0.02 0.01 0.01 0.01 0.02 0.02 0.02 0.03 0.02 0.02 0.02 0.02 0.02
0.00 0.01 0.02 0.01 0.01 0.01 0.01 0.01 0.02 0.01 0.01 0.01 0.02 0.03 0.05 0.07 0.06 0.03 0.02 0.02 0.02 0.03 0.03 0.03 0.03 0.03 0.02 0.02 0.03 0.03 0.02 0.02 0.02 0.02 0.02 0.02 0.02 0.01 0.02 0.02 0.02 0.02 0.02
0.00 0.00 0.01 0.01 0.02 0.02 0.02 0.02 0.03 0.02 0.02 0.02 0.02 0.03 0.03 0.03 0.03 0.02 0.02 0.02 0.01 0.02 0.03 0.03 0.03 0.02 0.02 0.02 0.02 0.02 0.02 0.03 0.03 0.03 0.02 0.02 0.02 0.02 0.01 0.01 0.01 0.01 0.01
0.00 0.00 0.00 0.01 0.01 0.03 0.03 0.03 0.03 0.02 0.02 0.02 0.02 0.03 0.03 0.03 0.03 0.02 0.02 0.01 0.01 0.01 0.02 0.02 0.02 0.02 0.02 0.02 0.01 0.01 0.02 0.02 0.02 0.03 0.02 0.02 0.02 0.02 0.01 0.01 0.01 0.01 0.01
0.00 0.00 0.00 0.00 0.01 0.02 0.05 0.06 0.04 0.03 0.03 0.02 0.03 0.03 0.05 0.05 0.03 0.03 0.02 0.01 0.01 0.01 0.01 0.02 0.02 0.02 0.02 0.02 0.02 0.01 0.01 0.02 0.02 0.02 0.02 0.02 0.01 0.01 0.01 0.01 0.00 0.00 0.00
0.00 0.00 0.00 0.01 0.01 0.03 0.05 0.05 0.04 0.03 0.03 0.02 0.03 0.04 0.06 0.07 0.05 0.04 0.02 0.01 0.01 0.01 0.01 0.02 0.02 0.03 0.03 0.02 0.03 0.02 0.02 0.02 0.02 0.02 0.02 0.02 0.01 0.01 0.01 0.01 0.00 0.01 0.01
0.00 0.00 0.00 0.01 0.01 0.03 0.05 0.06 0.05 0.04 0.03 0.03 0.04 0.05 0.07 0.07 0.05 0.04 0.04 0.03 0.01 0.01 0.01 0.01 0.02 0.03 0.03 0.03 0.02 0.02 0.02 0.02 0.02 0.02 0.02 0.02 0.02 0.01 0.01 0.01 0.01 0.01 0.01
0.00 0.00 0.01 0.01 0.02 0.04 0.04 0.05 0.04 0.04 0.03 0.03 0.04 0.04 0.04 0.04 0.05 0.04 0.04 0.04 0.02 0.01 0.01 0.02 0.03 0.03 0.03 0.04 0.03 0.02 0.03 0.04 0.03 0.02 0.02 0.02 0.02 0.02 0.02 0.01 0.01 0.01 0.00
0.00 0.00 0.01 0.01 0.02 0.04 0.04 0.03 0.03 0.04 0.04 0.04 0.04 0.03 0.03 0.03 0.04 0.05 0.04 0.05 0.04 0.03 0.02 0.02 0.03 0.02 0.02 0.03 0.04 0.06 0.05 0.04 0.04 0.03 0.04 0.03 0.02 0.02 0.02 0.02 0.02 0.01 0.01
0.00 0.00 0.00 0.01 0.02 0.03 0.03 0.03 0.03 0.03 0.02 0.03 0.03 0.03 0.04 0.04 0.05 0.05 0.05 0.06 0.05 0.05 0.04 0.03 0.03 0.02 0.02 0.02 0.03 0.05 0.06 0.06 0.05 0.03 0.03 0.02 0.02 0.02 0.02 0.01 0.02 0.02 0.02
0.00 0.00 0.01 0.01 0.02 0.03 0.05 0.05 0.04 0.02 0.01 0.01 0.01 0.02 0.02 0.04 0.05 0.04 0.05 0.05 0.05 0.04 0.04 0.03 0.02 0.02 0.03 0.03 0.02 0.04 0.05 0.06 0.06 0.05 0.04 0.02 0.01 0.01 0.01 0.01 0.02 0.03 0.03
0.00 0.00 0.01 0.01 0.02 0.03 0.04 0.06 0.05 0.02 0.01 0.01 0.01 0.02 0.03 0.03 0.05 0.04 0.03 0.04 0.03 0.02 0.03 0.03 0.03 0.04 0.04 0.03 0.03 0.03 0.03 0.04 0.04 0.05 0.04 0.02 0.01 0.01 0.01 0.01 0.01 0.02 0.02
0.00 0.00 0.00 0.01 0.01 0.01 0.02 0.05 0.05 0.03 0.02 0.02 0.02 0.02 0.02 0.03 0.04 0.03 0.02 0.02 0.02 0.01 0.02 0.03 0.05 0.05 0.05 0.03 0.03 0.03 0.04 0.03 0.04 0.05 0.04 0.03 0.02 0.02 0.02 0.01 0.01 0.01 0.01
0.00 0.00 0.00 0.00 0.01 0.01 0.01 0.03 0.05 0.04 0.03 0.03 0.03 0.02 0.02 0.03 0.04 0.03 0.02 0.02 0.02 0.02 0.02 0.03 0.05 0.05 0.06 0.05 0.05 0.04 0.04 0.04 0.04 0.04 0.04 0.03 0.03 0.03 0.02 0.02 0.02 0.02 0.02
0.01 0.00 0.00 0.00 0.01 0.00 0.01 0.01 0.02 0.03 0.03 0.04 0.04 0.04 0.03 0.03 0.04 0.02 0.02 0.02 0.02 0.02 0.03 0.05 0.05 0.05 0.05 0.07 0.08 0.07 0.05 0.04 0.03 0.03 0.03 0.04 0.03 0.03 0.02 0.01 0.01 0.01 0.02
0.01 0.01 0.00 0.00 0.00 0.00 0.00 0.01 0.01 0.02 0.03 0.05 0.03 0.04 0.04 0.03 0.04 0.02 0.01 0.01 0.01 0.02 0.02 0.03 0.04 0.03 0.04 0.05 0.06 0.08 0.07 0.05 0.04 0.03 0.03 0.03 0.03 0.03 0.02 0.01 0.01 0.01 0.01
0.02 0.01 0.00 0.00 0.00 0.01 0.01 0.01 0.01 0.01 0.02 0.02 0.02 0.03 0.03 0.03 0.03 0.02 0.01 0.01 0.02 0.02 0.02 0.02 0.02 0.02 0.03 0.03 0.03 0.05 0.05 0.05 0.05 0.04 0.03 0.02 0.02 0.02 0.03 0.02 0.01 0.01 0.01
0.03 0.01 0.00 0.00 0.01 0.01 0.01 0.01 0.01 0.01 0.02 0.01 0.01 0.02 0.02 0.02 0.02 0.02 0.01 0.02 0.03 0.02 0.02 0.02 0.02 0.02 0.02 0.02 0.03 0.03 0.03 0.04 0.04 0.04 0.03 0.02 0.02 0.02 0.03 0.02 0.02 0.01 0.01
0.02 0.01 0.00 0.01 0.01 0.01 0.02 0.02 0.01 0.01 0.01 0.01 0.01 0.01 0.01 0.01 0.01 0.02 0.01 0.02 0.02 0.01 0.01 0.02 0.02 0.02 0.02 0.02 0.02 0.02 0.02 0.03 0.03 0.02 0.02 0.02 0.02 0.02 0.03 0.03 0.03 0.03 0.03
0.02 0.00 0.00 0.01 0.01 0.01 0.01 0.01 0.01 0.01 0.01 0.01 0.00 0.01 0.01 0.01 0.01 0.01 0.02 0.02 0.02 0.01 0.00 0.01 0.01 0.02 0.02 0.02 0.02 0.02 0.02 0.02 0.02 0.03 0.03 0.03 0.03 0.02 0.02 0.03 0.03 0.03 0.04
0.03 0.01 0.00 0.00 0.01 0.01 0.01 0.01 0.01 0.01 0.01 0.01 0.01 0.01 0.01 0.01 0.01 0.01 0.02 0.03 0.02 0.01 0.01 0.00 0.01 0.01 0.01 0.02 0.02 0.02 0.02 0.02 0.02 0.02 0.03 0.03 0.04 0.04 0.03 0.02 0.03 0.03 0.03
0.03 0.01 0.00 0.00 0.00 0.00 0.01 0.01 0.01 0.00 0.00 0.01 0.01 0.01 0.02 0.02 0.02 0.02 0.02 0.02 0.02 0.01 0.01 0.01 0.01 0.01 0.01 0.01 0.02 0.01 0.01 0.01 0.01 0.01 0.02 0.02 0.03 0.04 0.04 0.04 0.04 0.04 0.04
0.03 0.01 0.01 0.00 0.00 0.00 0.00 0.01 0.00 0.00 0.01 0.01 0.00 0.01 0.02 0.02 0.01 0.01 0.01 0.02 0.02 0.02 0.01 0.01 0.01 0.02 0.01 0.01 0.02 0.02 0.01 0.01 0.01 0.01 0.01 0.01 0.01 0.02 0.02 0.03 0.04 0.04 0.05
0.02 0.01 0.01 0.00 0.00 0.00 0.00 0.00 0.01 0.01 0.01 0.01 0.01 0.01 0.01 0.03 0.03 0.02 0.02 0.02 0.02 0.02 0.02 0.02 0.02 0.02 0.03 0.02 0.02 0.01 0.01 0.01 0.01 0.01 0.01 0.01 0.01 0.01 0.01 0.01 0.02 0.03 0.03
MSLP
1015.29 1015.53 1015.69 1015.76 1015.75 1015.70 1015.64 1015.62 1015.67 1015.80 1015.99 1016.22 1016.44 1016.62 1016.75 1016.81 1016.83 1016.84 1016.89 1017.00 1017.22 1017.56 1018.01 1018.55 1019.14 1019.75 1020.35 1020.92 1021.45 1021.94 1022.42 1022.89 1023.36 1023.85 1024.36 1024.86 1025.35 1025.80 1026.18 1026.47 1026.67 1026.76 1026.75
1015.08 1015.39 1015.62 1015.72 1015.72 1015.65 1015.57 1015.52 1015.54 1015.66 1015.86 1016.11 1016.37 1016.60 1016.76 1016.85 1016.88 1016.90 1016.93 1017.04 1017.25 1017.59 1018.05 1018.61 1019.23 1019.87 1020.50 1021.08 1021.61 1022.10 1022.55 1023.00 1023.46 1023.95 1024.47 1025.01 1025.56 1026.08 1026.56 1026.96 1027.26 1027.45 1027.53
1014.71 1015.12 1015.43 1015.60 1015.64 1015.58 1015.48 1015.40 1015.41 1015.51 1015.71 1015.97 1016.26 1016.53 1016.73 1016.85 1016.91 1016.93 1016.96 1017.06 1017.26 1017.58 1018.04 1018.59 1019.22 1019.87 1020.50 1021.08 1021.60 1022.07 1022.51 1022.93 1023.37 1023.84 1024.36 1024.92 1025.51 1026.10 1026.66 1027.16 1027.57 1027.88 1028.07
1014.20 1014.73 1015.14 1015.40 1015.50 1015.48 1015.39 1015.31 1015.30 1015.38 1015.57 1015.84 1016.14 1016.43 1016.66 1016.81 1016.89 1016.92 1016.96 1017.05 1017.23 1017.54 1017.97 1018.51 1019.12 1019.76 1020.38 1020.95 1021.47 1021.92 1022.34 1022.74 1023.15 1023.61 1024.11 1024.67 1025.28 1025.91 1026.53 1027.12 1027.63 1028.06 1028.36
1013.60 1014.25 1014.79 1015.15 1015.34 1015.38 1015.33 1015.26 1015.23 1015.30 1015.47 1015.73 1016.02 1016.32 1016.56 1016.73 1016.83 1016.88 1016.92 1017.01 1017.18 1017.47 1017.88 1018.39 1018.98 1019.60 1020.21 1020.78 1021.28 1021.73 1022.12 1022.50 1022.89 1023.32 1023.80 1024.34 1024.94 1025.58 1026.24 1026.89 1027.49 1028.01 1028.43
1012.98 1013.75 1014.41 1014.89 1015.18 1015.30 1015.30 1015.26 1015.24 1015.28 1015.43 1015.65 1015.92 1016.20 1016.44 1016.63 1016.74 1016.81 1016.87 1016.97 1017.14 1017.42 1017.80 1018.30 1018.87 1019.47 1020.06 1020.62 1021.12 1021.56 1021.95 1022.31 1022.67 1023.06 1023.50 1024.01 1024.58 1025.21 1025.88 1026.55 1027.20 1027.80 1028.32
1012.43 1013.29 1014.06 1014.66 1015.05 1015.26 1015.32 1015.31 1015.30 1015.33 1015.44 1015.62 1015.86 1016.11 1016.34 1016.52 1016.65 1016.74 1016.83 1016.95 1017.13 1017.41 1017.80 1018.28 1018.83 1019.41 1020.00 1020.55 1021.04 1021.48 1021.87 1022.21 1022.55 1022.91 1023.31 1023.76 1024.28 1024.87 1025.51 1026.19 1026.86 1027.51 1028.10
1012.00 1012.92 1013.77 1014.46 1014.95 1015.24 1015.38 1015.41 1015.41 1015.43 1015.51 1015.65 1015.84 1016.06 1016.27 1016.45 1016.59 1016.71 1016.83 1016.98 1017.20 1017.49 1017.88 1018.36 1018.90 1019.47 1020.04 1020.59 1021.09 1021.53 1021.92 1022.26 1022.58 1022.90 1023.25 1023.64 1024.11 1024.63 1025.23 1025.88 1026.55 1027.22 1027.85
1011.72 1012.67 1013.56 1014.31 1014.87 1015.24 1015.44 1015.52 1015.55 1015.57 1015.63 1015.75 1015.90 1016.08 1016.27 1016.45 1016.61 1016.76 1016.92 1017.11 1017.35 1017.67 1018.08 1018.55 1019.09 1019.65 1020.22 1020.76 1021.26 1021.71 1022.10 1022.43 1022.74 1023.04 1023.34 1023.68 1024.08 1024.54 1025.08 1025.68 1026.32 1027.00 1027.65
1011.57 1012.51 1013.41 1014.19 1014.79 1015.21 1015.47 1015.61 1015.68 1015.73 1015.80 1015.90 1016.04 1016.20 1016.37 1016.55 1016.73 1016.91 1017.10 1017.33 1017.62 1017.97 1018.38 1018.86 1019.39 1019.94 1020.50 1021.04 1021.53 1021.98 1022.38 1022.72 1023.03 1023.30 1023.58 1023.88 1024.22 1024.61 1025.08 1025.63 1026.24 1026.89 1027.55
1011.53 1012.43 1013.29 1014.06 1014.68 1015.14 1015.45 1015.66 1015.79 1015.89 1015.99 1016.11 1016.25 1016.42 1016.59 1016.78 1016.97 1017.18 1017.41 1017.68 1017.99 1018.36 1018.78 1019.26 1019.77 1020.31 1020.85 1021.37 1021.87 1022.33 1022.73 1023.09 1023.40 1023.68 1023.94 1024.20 1024.50 1024.84 1025.25 1025.74 1026.30 1026.92 1027.56
1011.52 1012.36 1013.17 1013.89 1014.51 1015.00 1015.37 1015.64 1015.85 1016.03 1016.19 1016.36 1016.54 1016.72 1016.92 1017.12 1017.34 1017.57 1017.83 1018.12 1018.45 1018.83 1019.25 1019.71 1020.20 1020.72 1021.23 1021.74 1022.23 1022.69 1023.11 1023.49 1023.82 1024.11 1024.37 1024.63 1024.90 1025.20 1025.56 1025.99 1026.50 1027.07 1027.68
1011.50 1012.26 1013.00 1013.68 1014.27 1014.78 1015.20 1015.56 1015.87 1016.14 1016.39 1016.64 1016.87 1017.10 1017.32 1017.56 1017.79 1018.05 1018.32 1018.63 1018.97 1019.35 1019.76 1020.20 1020.66 1021.14 1021.63 1022.12 1022.60 1023.06 1023.50 1023.90 1024.26 1024.57 1024.85 1025.11 1025.36 1025.64 1025.95 1026.33 1026.78 1027.30 1027.87
1011.40 1012.09 1012.76 1013.39 1013.97 1014.50 1014.98 1015.43 1015.84 1016.22 1016.57 1016.91 1017.22 1017.50 1017.77 1018.03 1018.30 1018.57 1018.86 1019.18 1019.52 1019.89 1020.28 1020.70 1021.13 1021.58 1022.03 1022.50 1022.97 1023.43 1023.88 1024.30 1024.69 1025.04 1025.34 1025.61 1025.86 1026.11 1026.39 1026.71 1027.10 1027.56 1028.07
1011.20 1011.83 1012.45 1013.04 1013.62 1014.18 1014.72 1015.25 1015.77 1016.26 1016.72 1017.15 1017.54 1017.89 1018.21 1018.51 1018.80 1019.09 1019.40 1019.72 1020.07 1020.43 1020.81 1021.20 1021.60 1022.02 1022.44 1022.88 1023.33 1023.79 1024.25 1024.69 1025.11 1025.48 1025.81 1026.09 1026.34 1026.57 1026.81 1027.09 1027.42 1027.81 1028.25
1010.88 1011.48 1012.07 1012.65 1013.24 1013.83 1014.44 1015.06 1015.67 1016.27 1016.83 1017.34 1017.80 1018.21 1018.58 1018.92 1019.24 1019.56 1019.89 1020.23 1020.59 1020.95 1021.32 1021.70 1022.07 1022.46 1022.86 1023.27 1023.70 1024.15 1024.61 1025.06 1025.49 1025.88 1026.22 1026.52 1026.76 1026.98 1027.19 1027.42 1027.69 1028.01 1028.39
1010.45 1011.05 1011.64 1012.24 1012.84 1013.48 1014.16 1014.85 1015.55 1016.23 1016.87 1017.45 1017.98 1018.44 1018.85 1019.23 1019.58 1019.94 1020.30 1020.67 1021.04 1021.42 1021.80 1022.17 1022.54 1022.90 1023.27 1023.66 1024.07 1024.49 1024.94 1025.39 1025.82 1026.22 1026.57 1026.86 1027.11 1027.31 1027.49 1027.68 1027.90 1028.16 1028.47
1009.93 1010.56 1011.17 1011.80 1012.45 1013.15 1013.88 1014.64 1015.40 1016.14 1016.83 1017.47 1018.03 1018.54 1018.99 1019.40 1019.80 1020.20 1020.60 1021.01 1021.42 1021.83 1022.23 1022.61 1022.97 1023.32 1023.66 1024.02 1024.40 1024.80 1025.22 1025.65 1026.07 1026.46 1026.81 1027.11 1027.35 1027.55 1027.71 1027.87 1028.05 1028.26 1028.51
1009.34 1010.02 1010.68 1011.36 1012.07 1012.82 1013.60 1014.41 1015.21 1015.99 1016.72 1017.38 1017.97 1018.51 1018.99 1019.45 1019.89 1020.34 1020.79 1021.25 1021.71 1022.16 1022.58 1022.98 1023.34 1023.68 1024.00 1024.33 1024.67 1025.04 1025.42 1025.82 1026.22 1026.60 1026.94 1027.24 1027.48 1027.68 1027.85 1028.00 1028.16 1028.34 1028.55
1008.72 1009.45 1010.17 1010.91 1011.68 1012.48 1013.31 1014.16 1014.99 1015.78 1016.52 1017.20 1017.81 1018.36 1018.88 1019.37 1019.87 1020.37 1020.88 1021.39 1021.90 1022.39 1022.85 1023.26 1023.62 1023.95 1024.25 1024.55 1024.85 1025.17 1025.52 1025.88 1026.26 1026.62 1026.96 1027.26 1027.51 1027.73 1027.91 1028.07 1028.23 1028.40 1028.60
1008.09 1008.87 1009.66 1010.46 1011.28 1012.13 1013.00 1013.87 1014.71 1015.51 1016.26 1016.94 1017.56 1018.14 1018.68 1019.22 1019.76 1020.31 1020.87 1021.44 1021.99 1022.52 1023.00 1023.42 1023.78 1024.10 1024.38 1024.64 1024.91 1025.20 1025.50 1025.84 1026.18 1026.53 1026.87 1027.17 1027.45 1027.69 1027.89 1028.08 1028.26 1028.44 1028.63
1007.47 1008.30 1009.13 1009.98 1010.85 1011.74 1012.64 1013.52 1014.38 1015.18 1015.93 1016.62 1017.25 1017.85 1018.43 1019.00 1019.58 1020.18 1020.79 1021.39 1021.98 1022.53 1023.02 1023.44 1023.80 1024.10 1024.36 1024.60 1024.84 1025.09 1025.37 1025.68 1026.01 1026.34 1026.68 1027.00 1027.29 1027.56 1027.80 1028.02 1028.23 1028.43 1028.64
1006.88 1007.73 1008.60 1009.49 1010.39 1011.31 1012.22 1013.12 1013.97 1014.78 1015.54 1016.24 1016.90 1017.52 1018.13 1018.74 1019.36 1020.00 1020.63 1021.26 1021.86 1022.41 1022.90 1023.31 1023.66 1023.94 1024.19 1024.41 1024.63 1024.87 1025.13 1025.42 1025.74 1026.08 1026.41 1026.74 1027.06 1027.35 1027.62 1027.87 1028.11 1028.33 1028.54
1006.32 1007.18 1008.06 1008.97 1009.88 1010.81 1011.73 1012.64 1013.50 1014.32 1015.09 1015.81 1016.50 1017.15 1017.80 1018.45 1019.10 1019.76 1020.40 1021.03 1021.62 1022.16 1022.63 1023.03 1023.36 1023.63 1023.87 1024.08 1024.30 1024.54 1024.80 1025.09 1025.40 1025.74 1026.08 1026.41 1026.73 1027.03 1027.32 1027.58 1027.84 1028.08 1028.30
1005.79 1006.64 1007.52 1008.41 1009.33 1010.25 1011.17 1012.08 1012.95 1013.78 1014.57 1015.32 1016.04 1016.74 1017.42 1018.10 1018.77 1019.44 1020.08 1020.70 1021.26 1021.77 1022.22 1022.59 1022.91 1023.17 1023.41 1023.64 1023.86 1024.11 1024.39 1024.68 1025.00 1025.33 1025.66 1025.98 1026.29 1026.59 1026.86 1027.13 1027.38 1027.62 1027.85
1005.28 1006.10 1006.95 1007.82 1008.72 1009.63 1010.54 1011.44 1012.32 1013.16 1013.98 1014.76 1015.52 1016.25 1016.97 1017.68 1018.36 1019.02 1019.65 1020.24 1020.77 1021.25 1021.66 1022.01 1022.31 1022.58 1022.83 1023.07 1023.32 1023.60 1023.89 1024.20 1024.52 1024.84 1025.15 1025.44 1025.73 1025.99 1026.24 1026.48 1026.72 1026.95 1027.18
Thickness
5722 5723 5723 5723 5721 5719 5718 5716 5714 5713 5712 5710 5707 5706 5704 5704 5704 5704 5704 5703 5703 5702 5701 5700 5698 5697 5695 5693 5691 5688 5685 5683 5683 5681 5678 5678 5678 5678 5677 5677 5677 5677 5676
5717 5718 5718 5717 5716 5714 5712 5711 5709 5708 5707 5706 5704 5702 5701 5699 5699 5699 5699 5699 5698 5697 5697 5696 5694 5692 5690 5688 5687 5685 5681 5679 5679 5676 5672 5669 5669 5670 5672 5671 5672 5671 5671
5713 5713 5713 5712 5711 5709 5707 5707 5705 5704 5703 5701 5699 5697 5695 5694 5693 5693 5693 5694 5694 5693 5693 5692 5690 5689 5687 5684 5683 5681 5679 5675 5674 5674 5671 5665 5662 5662 5664 5665 5665 5665 5665
5711 5710 5709 5708 5707 5706 5705 5703 5701 5699 5698 5697 5695 5692 5689 5687 5687 5688 5688 5689 5689 5689 5689 5688 5687 5685 5683 5681 5679 5678 5676 5674 5671 5670 5669 5667 5665 5660 5657 5658 5659 5660 5660
5709 5707 5706 5705 5704 5703 5701 5699 5697 5695 5694 5693 5692 5689 5686 5685 5684 5684 5684 5684 5684 5684 5684 5683 5682 5681 5679 5678 5676 5674 5673 5672 5669 5667 5665 5663 5661 5659 5655 5652 5652 5653 5654
5705 5704 5703 5702 5700 5699 5697 5695 5692 5691 5690 5689 5688 5686 5683 5681 5679 5679 5679 5679 5679 5679 5679 5679 5678 5676 5675 5674 5672 5671 5670 5668 5667 5665 5664 5661 5659 5656 5653 5649 5648 5647 5648
5700 5698 5697 5696 5694 5694 5692 5690 5688 5686 5685 5684 5683 5682 5680 5679 5677 5676 5675 5674 5673 5674 5674 5674 5673 5672 5671 5670 5669 5667 5666 5665 5664 5663 5661 5660 5659 5657 5653 5648 5645 5643 5643
5695 5694 5693 5691 5689 5689 5687 5685 5683 5681 5680 5679 5678 5678 5677 5675 5674 5673 5672 5671 5670 5670 5670 5669 5668 5668 5667 5666 5665 5663 5662 5661 5660 5660 5658 5656 5655 5654 5651 5647 5643 5639 5638
5691 5690 5688 5687 5685 5683 5682 5681 5679 5677 5676 5676 5675 5674 5673 5672 5670 5670 5669 5668 5667 5667 5666 5665 5664 5663 5662 5662 5661 5659 5658 5657 5656 5655 5654 5652 5651 5650 5648 5646 5643 5639 5635
5687 5685 5684 5682 5680 5679 5678 5676 5675 5673 5673 5672 5670 5670 5669 5668 5667 5666 5664 5663 5663 5662 5661 5660 5660 5659 5658 5657 5656 5655 5654 5653 5651 5650 5649 5648 5646 5645 5643 5641 5638 5637 5634
5683 5681 5679 5678 5676 5674 5673 5671 5669 5668 5667 5666 5665 5664 5664 5663 5662 5661 5660 5659 5658 5658 5657 5656 5655 5654 5653 5652 5651 5650 5649 5648 5646 5645 5644 5643 5641 5639 5638 5636 5634 5632 5629
5679 5677 5675 5672 5670 5668 5667 5665 5663 5662 5661 5660 5659 5658 5658 5657 5656 5656 5655 5654 5653 5653 5652 5651 5651 5650 5649 5648 5646 5645 5644 5643 5641 5640 5639 5638 5637 5635 5633 5631 5629 5627 5625
5674 5671 5669 5667 5665 5663 5660 5659 5657 5657 5656 5654 5653 5652 5652 5651 5651 5650 5650 5650 5649 5648 5647 5647 5646 5645 5644 5643 5642 5641 5639 5638 5637 5636 5635 5633 5632 5629 5627 5626 5624 5623 5622
5669 5667 5664 5661 5660 5658 5656 5654 5652 5652 5651 5649 5648 5647 5646 5646 5646 5646 5645 5645 5644 5644 5643 5642 5642 5641 5640 5638 5637 5636 5635 5634 5633 5632 5630 5629 5627 5626 5624 5622 5620 5618 5615
5664 5662 5659 5657 5655 5653 5651 5649 5648 5647 5646 5644 5642 5641 5641 5641 5641 5641 5640 5640 5639 5639 5638 5637 5637 5636 5635 5635 5633 5632 5631 5629 5627 5626 5625 5625 5624 5623 5621 5619 5616 5614 5610
5660 5658 5655 5652 5650 5648 5647 5645 5643 5642 5640 5638 5637 5636 5636 5636 5635 5635 5634 5634 5633 5632 5632 5632 5631 5631 5632 5632 5630 5629 5626 5624 5622 5621 5620 5620 5619 5618 5617 5615 5614 5611 5608
5656 5653 5650 5648 5646 5644 5642 5640 5638 5637 5634 5633 5631 5631 5631 5630 5629 5629 5628 5627 5626 5626 5625 5626 5626 5626 5627 5627 5626 5625 5622 5620 5618 5616 5615 5615 5614 5613 5611 5610 5608 5606 5605
5651 5649 5647 5644 5642 5639 5637 5635 5633 5631 5629 5627 5626 5625 5625 5624 5624 5623 5622 5621 5621 5620 5620 5620 5620 5620 5621 5622 5621 5620 5617 5615 5613 5612 5610 5609 5608 5607 5606 5604 5602 5600 5599
5648 5646 5644 5641 5637 5634 5632 5629 5626 5624 5623 5621 5620 5620 5619 5618 5618 5617 5616 5615 5615 5614 5614 5614 5614 5614 5615 5616 5615 5614 5611 5609 5608 5606 5605 5604 5603 5603 5601 5599 5596 5594 5594
5644 5642 5639 5636 5632 5630 5626 5623 5621 5619 5617 5616 5615 5614 5614 5613 5612 5611 5610 5610 5609 5609 5609 5608 5608 5608 5608 5609 5609 5608 5605 5603 5602 5601 5600 5599 5599 5598 5596 5594 5591 5589 5588
5639 5637 5634 5631 5628 5624 5621 5618 5616 5614 5613 5612 5611 5609 5608 5608 5607 5605 5605 5604 5603 5602 5601 5601 5602 5601 5602 5603 5603 5602 5599 5598 5597 5596 5595 5595 5594 5593 5591 5589 5587 5587 5584
5632 5630 5627 5625 5622 5619 5616 5613 5611 5610 5608 5607 5605 5604 5603 5602 5602 5599 5598 5597 5596 5594 5593 5593 5594 5595 5595 5596 5596 5596 5595 5594 5592 5591 5590 5590 5589 5588 5586 5584 5582 5581 5578
5626 5623 5620 5618 5616 5614 5611 5608 5607 5605 5603 5601 5599 5598 5597 5596 5595 5593 5592 5590 5589 5587 5587 5586 5586 5587 5588 5588 5590 5589 5588 5587 5586 5585 5585 5584 5582 5581 5578 5577 5575 5573 5569
5618 5616 5614 5611 5609 5608 5606 5605 5603 5601 5598 5596 5594 5592 5591 5590 5589 5587 5586 5584 5582 5581 5581 5581 5580 5581 5581 5581 5582 5581 5580 5580 5579 5577 5577 5576 5574 5572 5570 5569 5567 5565 5563
5611 5609 5607 5605 5604 5602 5601 5599 5597 5595 5592 5590 5589 5587 5585 5584 5582 5581 5580 5579 5579 5577 5577 5576 5576 5575 5576 5577 5577 5575 5574 5573 5572 5569 5567 5566 5564 5562 5561 5560 5558 5557 5555
5604 5602 5600 5599 5598 5596 5595 5594 5592 5589 5587 5585 5583 5581 5579 5578 5577 5575 5574 5574 5573 5573 5573 5572 5571 5571 5571 5571 5569 5569 5567 5566 5564 5561 5559 5558 5557 5556 5554 5553 5551 5550 5549